Time,TemperatureF,DewpointF,PressureIn,WindDirection,WindDirectionDegrees,WindSpeedMPH,WindSpeedGustMPH,Humidity,HourlyPrecipIn,Conditions,Clouds,dailyrainin,SoftwareType,DateUTC
2013-10-15 00:03:00,55.4,55.1,30.11,SW,217,0.0,0.0,99,0.00,,,0.03,LWC V2.00 B2112,2013-10-15 04:03:00,
2013-10-15 00:08:00,55.1,54.8,30.11,SW,217,0.0,0.0,99,0.00,,,0.03,LWC V2.00 B2112,2013-10-15 04:08:00,
2013-10-15 00:13:00,55.0,54.7,30.11,SW,217,0.0,0.0,99,0.00,,,0.03,LWC V2.00 B2112,2013-10-15 04:13:00,
2013-10-15 00:18:00,55.0,54.7,30.11,SW,217,0.0,0.0,99,0.00,,,0.03,LWC V2.00 B2112,2013-10-15 04:18:00,
2013-10-15 00:23:00,55.0,54.7,30.11,SW,217,0.0,0.0,99,0.00,,,0.03,LWC V2.00 B2112,2013-10-15 04:23:00,
2013-10-15 00:28:00,54.8,54.5,30.11,SW,217,0.0,0.0,99,0.00,,,0.03,LWC V2.00 B2112,2013-10-15 04:28:00,
2013-10-15 00:33:00,54.7,54.4,30.11,SW,217,0.0,0.0,99,0.00,,,0.03,LWC V2.00 B2112,2013-10-15 04:33:00,
2013-10-15 00:38:00,54.5,54.2,30.11,SW,217,0.0,0.0,99,0.00,,,0.03,LWC V2.00 B2112,2013-10-15 04:38:00,
2013-10-15 00:43:00,54.7,54.4,30.11,SW,217,0.0,0.0,99,0.00,,,0.03,LWC V2.00 B2112,2013-10-15 04:43:00,
2013-10-15 00:48:00,54.7,54.4,30.11,SW,217,0.0,0.0,99,0.00,,,0.03,LWC V2.00 B2112,2013-10-15 04:48:00,
2013-10-15 00:53:00,54.8,54.5,30.11,WNW,292,0.0,0.0,99,0.00,,,0.03,LWC V2.00 B2112,2013-10-15 04:53:00,
2013-10-15 00:58:00,54.7,54.4,30.11,WNW,292,0.0,0.0,99,0.00,,,0.00,LWC V2.00 B2112,2013-10-15 04:58:00,
2013-10-15 01:03:00,54.7,54.4,30.11,WNW,292,0.0,0.0,99,0.00,,,0.00,LWC V2.00 B2112,2013-10-15 05:03:00,
2013-10-15 01:08:00,54.5,54.2,30.11,WNW,292,0.0,0.0,99,0.00,,,0.00,LWC V2.00 B2112,2013-10-15 05:08:00,
2013-10-15 01:13:00,54.4,54.1,30.11,WNW,292,0.0,0.0,99,0.00,,,0.00,LWC V2.00 B2112,2013-10-15 05:13:00,
2013-10-15 01:18:00,54.2,53.9,30.11,WNW,292,0.0,0.0,99,0.00,,,0.00,LWC V2.00 B2112,2013-10-15 05:18:00,
2013-10-15 01:23:00,54.2,53.9,30.11,WNW,292,0.0,0.0,99,0.00,,,0.00,LWC V2.00 B2112,2013-10-15 05:23:00,
2013-10-15 01:28:00,54.1,53.8,30.11,WNW,292,0.0,0.0,99,0.00,,,0.00,LWC V2.00 B2112,2013-10-15 05:28:00,
2013-10-15 01:33:00,54.2,54.2,30.11,WNW,292,0.0,0.0,100,0.00,,,0.00,LWC V2.00 B2112,2013-10-15 05:33:00,
2013-10-15 01:38:00,54.1,54.1,30.11,WNW,292,0.0,0.0,100,0.00,,,0.00,LWC V2.00 B2112,2013-10-15 05:38:00,
2013-10-15 01:43:00,54.1,54.1,30.10,WNW,292,0.0,0.0,100,0.00,,,0.00,LWC V2.00 B2112,2013-10-15 05:43:00,
2013-10-15 01:48:00,54.1,54.1,30.10,WNW,292,0.0,0.0,100,0.00,,,0.00,LWC V2.00 B2112,2013-10-15 05:48:00,
2013-10-15 01:53:00,54.1,54.1,30.10,WNW,292,0.0,0.0,100,0.00,,,0.00,LWC V2.00 B2112,2013-10-15 05:53:00,
2013-10-15 01:58:00,54.1,54.1,30.09,WSW,241,0.0,0.0,100,0.00,,,0.00,LWC V2.00 B2112,2013-10-15 05:58:00,
2013-10-15 02:03:00,54.1,54.1,30.09,WSW,241,0.0,0.0,100,0.00,,,0.00,LWC V2.00 B2112,2013-10-15 06:03:00,
2013-10-15 02:08:00,54.1,54.1,30.09,WSW,241,0.0,0.0,100,0.00,,,0.00,LWC V2.00 B2112,2013-10-15 06:08:00,
2013-10-15 02:13:00,54.1,54.1,30.09,WSW,241,0.0,0.0,100,0.00,,,0.00,LWC V2.00 B2112,2013-10-15 06:13:00,
2013-10-15 02:18:00,54.1,54.1,30.09,NNE,12,0.0,0.0,100,0.00,,,0.00,LWC V2.00 B2112,2013-10-15 06:18:00,
2013-10-15 02:23:00,54.2,54.2,30.09,South,178,0.0,0.0,100,0.00,,,0.00,LWC V2.00 B2112,2013-10-15 06:23:00,
2013-10-15 02:28:00,54.1,54.1,30.09,South,178,0.0,0.0,100,0.00,,,0.00,LWC V2.00 B2112,2013-10-15 06:28:00,
2013-10-15 02:33:00,54.1,54.1,30.09,South,178,0.0,0.0,100,0.00,,,0.00,LWC V2.00 B2112,2013-10-15 06:33:00,
2013-10-15 02:38:00,53.9,53.9,30.09,South,178,0.0,0.0,100,0.00,,,0.00,LWC V2.00 B2112,2013-10-15 06:38:00,
2013-10-15 02:43:00,53.9,53.9,30.09,South,178,0.0,0.0,100,0.00,,,0.00,LWC V2.00 B2112,2013-10-15 06:43:00,
2013-10-15 02:48:00,53.9,53.9,30.09,South,178,0.0,0.0,100,0.00,,,0.00,LWC V2.00 B2112,2013-10-15 06:48:00,
2013-10-15 02:53:00,53.6,53.6,30.09,South,178,0.0,0.0,100,0.00,,,0.00,LWC V2.00 B2112,2013-10-15 06:53:00,
2013-10-15 02:58:00,53.5,53.5,30.09,South,178,0.0,0.0,100,0.00,,,0.00,LWC V2.00 B2112,2013-10-15 06:58:00,
2013-10-15 03:03:00,53.3,53.3,30.09,South,178,0.0,0.0,100,0.00,,,0.00,LWC V2.00 B2112,2013-10-15 07:03:00,
2013-10-15 03:08:00,53.2,53.2,30.09,South,178,0.0,0.0,100,0.00,,,0.00,LWC V2.00 B2112,2013-10-15 07:08:00,
2013-10-15 03:13:00,53.1,53.1,30.08,South,178,0.0,0.0,100,0.00,,,0.00,LWC V2.00 B2112,2013-10-15 07:13:00,
2013-10-15 03:18:00,52.9,52.9,30.08,South,178,0.0,0.0,100,0.00,,,0.00,LWC V2.00 B2112,2013-10-15 07:18:00,
2013-10-15 03:23:00,52.9,52.9,30.08,South,178,0.0,0.0,100,0.00,,,0.00,LWC V2.00 B2112,2013-10-15 07:23:00,
2013-10-15 03:28:00,52.9,52.9,30.08,South,178,0.0,0.0,100,0.00,,,0.00,LWC V2.00 B2112,2013-10-15 07:28:00,
2013-10-15 03:33:00,52.8,52.8,30.08,South,178,0.0,0.0,100,0.00,,,0.00,LWC V2.00 B2112,2013-10-15 07:33:00,
2013-10-15 03:38:00,52.6,52.6,30.08,South,178,0.0,0.0,100,0.00,,,0.00,LWC V2.00 B2112,2013-10-15 07:38:00,
2013-10-15 03:43:00,52.8,52.8,30.07,South,178,0.0,0.0,100,0.00,,,0.00,LWC V2.00 B2112,2013-10-15 07:43:00,
2013-10-15 03:48:00,52.8,52.8,30.07,South,178,0.0,0.0,100,0.00,,,0.00,LWC V2.00 B2112,2013-10-15 07:48:00,
2013-10-15 03:53:00,52.9,52.9,30.07,South,178,0.0,0.0,100,0.00,,,0.00,LWC V2.00 B2112,2013-10-15 07:53:00,
2013-10-15 03:58:00,53.1,53.1,30.06,WNW,295,0.0,0.0,100,0.00,,,0.00,LWC V2.00 B2112,2013-10-15 07:58:00,
2013-10-15 04:03:00,53.2,53.2,30.06,WNW,295,0.0,0.0,100,0.00,,,0.00,LWC V2.00 B2112,2013-10-15 08:03:00,
2013-10-15 04:08:00,53.2,53.2,30.06,WNW,288,0.0,0.0,100,0.00,,,0.00,LWC V2.00 B2112,2013-10-15 08:08:00,
2013-10-15 04:13:00,53.2,53.2,30.06,WNW,288,0.0,0.0,100,0.00,,,0.00,LWC V2.00 B2112,2013-10-15 08:13:00,
2013-10-15 04:18:00,53.2,53.2,30.06,WNW,288,0.0,0.0,100,0.00,,,0.00,LWC V2.00 B2112,2013-10-15 08:18:00,
2013-10-15 04:23:00,53.1,53.1,30.06,WNW,288,0.0,0.0,100,0.00,,,0.01,LWC V2.00 B2112,2013-10-15 08:23:00,
2013-10-15 04:28:00,52.9,52.9,30.07,WNW,288,0.0,0.0,100,0.00,,,0.01,LWC V2.00 B2112,2013-10-15 08:28:00,
2013-10-15 04:33:00,52.9,52.9,30.07,WNW,288,0.0,0.0,100,0.00,,,0.01,LWC V2.00 B2112,2013-10-15 08:33:00,
2013-10-15 04:38:00,52.8,52.8,30.07,North,1,0.0,0.0,100,0.00,,,0.01,LWC V2.00 B2112,2013-10-15 08:38:00,
2013-10-15 04:43:00,52.9,52.9,30.07,North,1,0.0,0.0,100,0.00,,,0.01,LWC V2.00 B2112,2013-10-15 08:43:00,
2013-10-15 04:48:00,52.8,52.8,30.07,North,1,0.0,0.0,100,0.00,,,0.01,LWC V2.00 B2112,2013-10-15 08:48:00,
2013-10-15 04:53:00,52.9,52.9,30.07,NW,307,0.0,0.0,100,0.00,,,0.01,LWC V2.00 B2112,2013-10-15 08:53:00,
2013-10-15 04:58:00,52.8,52.8,30.07,NW,307,0.0,0.0,100,0.00,,,0.01,LWC V2.00 B2112,2013-10-15 08:58:00,
2013-10-15 05:03:00,52.8,52.8,30.07,NW,307,0.0,0.0,100,0.00,,,0.01,LWC V2.00 B2112,2013-10-15 09:03:00,
2013-10-15 05:08:00,52.8,52.8,30.07,NW,307,0.0,0.0,100,0.00,,,0.01,LWC V2.00 B2112,2013-10-15 09:08:00,
2013-10-15 05:13:00,52.8,52.8,30.07,NW,307,0.0,0.0,100,0.00,,,0.01,LWC V2.00 B2112,2013-10-15 09:13:00,
2013-10-15 05:18:00,52.8,52.8,30.07,NW,307,0.0,0.0,100,0.00,,,0.01,LWC V2.00 B2112,2013-10-15 09:18:00,
2013-10-15 05:23:00,52.9,52.9,30.07,NW,307,0.0,0.0,100,0.00,,,0.01,LWC V2.00 B2112,2013-10-15 09:23:00,
2013-10-15 05:28:00,52.9,52.9,30.06,NE,56,0.0,0.0,100,0.00,,,0.01,LWC V2.00 B2112,2013-10-15 09:28:00,
2013-10-15 05:33:00,52.8,52.8,30.06,NE,56,0.0,0.0,100,0.00,,,0.01,LWC V2.00 B2112,2013-10-15 09:33:00,
2013-10-15 05:38:00,52.8,52.8,30.06,ENE,70,0.0,0.0,100,0.00,,,0.01,LWC V2.00 B2112,2013-10-15 09:38:00,
2013-10-15 05:43:00,52.6,52.6,30.06,ENE,70,0.0,0.0,100,0.00,,,0.01,LWC V2.00 B2112,2013-10-15 09:43:00,
2013-10-15 05:48:00,52.6,52.6,30.06,ENE,70,0.0,0.0,100,0.00,,,0.01,LWC V2.00 B2112,2013-10-15 09:48:00,
2013-10-15 05:53:00,52.6,52.6,30.06,ENE,70,0.0,0.0,100,0.00,,,0.01,LWC V2.00 B2112,2013-10-15 09:53:00,
2013-10-15 05:58:00,52.6,52.6,30.06,ENE,70,0.0,0.0,100,0.00,,,0.01,LWC V2.00 B2112,2013-10-15 09:58:00,
2013-10-15 06:03:00,52.8,52.8,30.06,ENE,70,0.0,0.0,100,0.00,,,0.01,LWC V2.00 B2112,2013-10-15 10:03:00,
2013-10-15 06:08:00,52.9,52.9,30.06,WNW,285,0.0,0.0,100,0.00,,,0.01,LWC V2.00 B2112,2013-10-15 10:08:00,
2013-10-15 06:13:00,53.1,53.1,30.06,NW,305,0.0,0.0,100,0.00,,,0.01,LWC V2.00 B2112,2013-10-15 10:13:00,
2013-10-15 06:18:00,53.2,53.2,30.06,NNE,26,0.0,0.0,100,0.00,,,0.01,LWC V2.00 B2112,2013-10-15 10:18:00,
2013-10-15 06:23:00,53.2,53.2,30.06,NNE,26,0.0,0.0,100,0.00,,,0.01,LWC V2.00 B2112,2013-10-15 10:23:00,
2013-10-15 06:28:00,53.2,53.2,30.06,NNE,26,0.0,0.0,100,0.00,,,0.01,LWC V2.00 B2112,2013-10-15 10:28:00,
2013-10-15 06:33:00,53.2,53.2,30.06,NNE,26,0.0,0.0,100,0.00,,,0.01,LWC V2.00 B2112,2013-10-15 10:33:00,
2013-10-15 06:38:00,53.2,53.2,30.06,NNE,26,0.0,0.0,100,0.00,,,0.01,LWC V2.00 B2112,2013-10-15 10:38:00,
2013-10-15 06:43:00,53.3,53.3,30.07,NNE,26,0.0,0.0,100,0.00,,,0.01,LWC V2.00 B2112,2013-10-15 10:43:00,
2013-10-15 06:48:00,53.3,53.3,30.07,NNE,19,0.0,0.0,100,0.00,,,0.01,LWC V2.00 B2112,2013-10-15 10:48:00,
2013-10-15 06:53:00,53.3,53.3,30.07,WNW,288,0.0,0.0,100,0.00,,,0.01,LWC V2.00 B2112,2013-10-15 10:53:00,
2013-10-15 06:58:00,53.3,53.3,30.08,SW,226,0.0,0.0,100,0.00,,,0.01,LWC V2.00 B2112,2013-10-15 10:58:00,
2013-10-15 07:03:00,53.3,53.3,30.08,ENE,60,0.0,0.0,100,0.00,,,0.01,LWC V2.00 B2112,2013-10-15 11:03:00,
2013-10-15 07:08:00,53.3,53.3,30.08,ENE,60,0.0,0.0,100,0.00,,,0.01,LWC V2.00 B2112,2013-10-15 11:08:00,
2013-10-15 07:13:00,53.3,53.3,30.08,ENE,60,0.0,0.0,100,0.00,,,0.01,LWC V2.00 B2112,2013-10-15 11:13:00,
2013-10-15 07:18:00,53.3,53.3,30.08,West,281,0.0,0.0,100,0.00,,,0.01,LWC V2.00 B2112,2013-10-15 11:18:00,
2013-10-15 07:23:00,53.2,53.2,30.08,WSW,242,0.0,0.0,100,0.00,,,0.01,LWC V2.00 B2112,2013-10-15 11:23:00,
2013-10-15 07:28:00,53.2,53.2,30.08,WSW,255,0.0,0.0,100,0.00,,,0.01,LWC V2.00 B2112,2013-10-15 11:28:00,
2013-10-15 07:33:00,53.2,53.2,30.08,NW,313,0.0,0.0,100,0.00,,,0.01,LWC V2.00 B2112,2013-10-15 11:33:00,
2013-10-15 07:38:00,53.2,53.2,30.08,NW,313,0.0,0.0,100,0.00,,,0.01,LWC V2.00 B2112,2013-10-15 11:38:00,
2013-10-15 07:43:00,53.2,53.2,30.08,NW,313,0.0,0.0,100,0.00,,,0.01,LWC V2.00 B2112,2013-10-15 11:43:00,
2013-10-15 07:48:00,53.2,53.2,30.08,NW,313,0.0,0.0,100,0.00,,,0.01,LWC V2.00 B2112,2013-10-15 11:48:00,
2013-10-15 07:53:00,53.2,53.2,30.08,WNW,297,0.0,0.0,100,0.00,,,0.01,LWC V2.00 B2112,2013-10-15 11:53:00,
2013-10-15 07:58:00,53.2,53.2,30.08,NW,309,0.0,0.0,100,0.00,,,0.01,LWC V2.00 B2112,2013-10-15 11:58:00,
2013-10-15 08:03:00,53.3,53.3,30.08,ENE,77,0.0,0.0,100,0.00,,,0.01,LWC V2.00 B2112,2013-10-15 12:03:00,
2013-10-15 08:08:00,53.5,53.5,30.08,ENE,77,0.0,0.0,100,0.00,,,0.01,LWC V2.00 B2112,2013-10-15 12:08:00,
2013-10-15 08:13:00,53.5,53.5,30.08,WNW,289,0.0,0.0,100,0.00,,,0.01,LWC V2.00 B2112,2013-10-15 12:13:00,
2013-10-15 08:18:00,53.5,53.5,30.08,WNW,291,0.0,0.0,100,0.00,,,0.01,LWC V2.00 B2112,2013-10-15 12:18:00,
2013-10-15 08:23:00,53.6,53.6,30.08,WNW,302,0.0,0.0,100,0.00,,,0.01,LWC V2.00 B2112,2013-10-15 12:23:00,
2013-10-15 08:28:00,53.8,53.8,30.08,WNW,302,0.0,0.0,100,0.00,,,0.01,LWC V2.00 B2112,2013-10-15 12:28:00,
2013-10-15 08:33:00,53.9,53.9,30.08,NW,309,0.0,0.0,100,0.00,,,0.01,LWC V2.00 B2112,2013-10-15 12:33:00,
2013-10-15 08:38:00,53.9,53.9,30.08,NW,310,0.0,0.0,100,0.00,,,0.01,LWC V2.00 B2112,2013-10-15 12:38:00,
2013-10-15 08:43:00,54.1,54.1,30.09,NW,305,0.0,0.0,100,0.00,,,0.01,LWC V2.00 B2112,2013-10-15 12:43:00,
2013-10-15 08:48:00,54.4,54.4,30.09,WNW,296,0.0,0.0,100,0.00,,,0.01,LWC V2.00 B2112,2013-10-15 12:48:00,
2013-10-15 08:53:00,54.5,54.5,30.09,NW,307,0.0,0.0,100,0.00,,,0.01,LWC V2.00 B2112,2013-10-15 12:53:00,
2013-10-15 08:58:00,54.7,54.7,30.09,NW,307,0.0,0.0,100,0.00,,,0.01,LWC V2.00 B2112,2013-10-15 12:58:00,
2013-10-15 09:03:00,54.8,54.8,30.09,West,281,0.0,0.0,100,0.00,,,0.01,LWC V2.00 B2112,2013-10-15 13:03:00,
2013-10-15 09:08:00,55.1,55.1,30.09,West,278,0.0,0.0,100,0.00,,,0.01,LWC V2.00 B2112,2013-10-15 13:08:00,
2013-10-15 09:13:00,55.3,55.3,30.09,WNW,303,0.0,0.0,100,0.00,,,0.01,LWC V2.00 B2112,2013-10-15 13:13:00,
2013-10-15 09:18:00,55.4,55.4,30.09,NNW,330,0.0,0.0,100,0.00,,,0.01,LWC V2.00 B2112,2013-10-15 13:18:00,
2013-10-15 09:23:00,55.7,55.7,30.09,WNW,288,0.0,0.0,100,0.00,,,0.01,LWC V2.00 B2112,2013-10-15 13:23:00,
2013-10-15 09:28:00,56.5,56.5,30.09,NW,326,0.0,0.0,100,0.00,,,0.01,LWC V2.00 B2112,2013-10-15 13:28:00,
2013-10-15 09:33:00,56.3,56.3,30.09,SW,229,0.0,0.0,100,0.00,,,0.01,LWC V2.00 B2112,2013-10-15 13:33:00,
2013-10-15 09:38:00,56.0,56.0,30.09,West,259,0.0,0.0,100,0.00,,,0.01,LWC V2.00 B2112,2013-10-15 13:38:00,
2013-10-15 09:43:00,55.9,55.9,30.09,NW,320,0.0,0.0,100,0.00,,,0.01,LWC V2.00 B2112,2013-10-15 13:43:00,
2013-10-15 09:48:00,56.0,56.0,30.09,NW,314,0.0,2.0,100,0.00,,,0.01,LWC V2.00 B2112,2013-10-15 13:48:00,
2013-10-15 09:53:00,56.5,56.5,30.09,WNW,301,0.0,0.0,100,0.00,,,0.01,LWC V2.00 B2112,2013-10-15 13:53:00,
2013-10-15 09:58:00,56.9,56.9,30.09,NW,319,0.0,0.0,100,0.00,,,0.01,LWC V2.00 B2112,2013-10-15 13:58:00,
2013-10-15 10:03:00,57.2,56.9,30.09,NW,311,0.0,0.0,99,0.00,,,0.01,LWC V2.00 B2112,2013-10-15 14:03:00,
2013-10-15 10:08:00,57.6,57.0,30.09,ESE,121,0.0,0.0,98,0.00,,,0.01,LWC V2.00 B2112,2013-10-15 14:08:00,
2013-10-15 10:13:00,58.4,57.5,30.08,SE,124,0.0,0.0,97,0.00,,,0.01,LWC V2.00 B2112,2013-10-15 14:13:00,
2013-10-15 10:18:00,58.7,56.7,30.08,WNW,286,0.0,0.0,93,0.00,,,0.01,LWC V2.00 B2112,2013-10-15 14:18:00,
2013-10-15 10:23:00,58.7,56.1,30.08,SSE,150,0.0,0.0,91,0.00,,,0.01,LWC V2.00 B2112,2013-10-15 14:23:00,
2013-10-15 10:28:00,58.9,56.0,30.08,WNW,292,0.0,1.0,90,0.00,,,0.01,LWC V2.00 B2112,2013-10-15 14:28:00,
2013-10-15 10:33:00,59.0,56.4,30.08,WNW,292,0.0,0.0,91,0.00,,,0.01,LWC V2.00 B2112,2013-10-15 14:33:00,
2013-10-15 10:38:00,59.5,56.9,30.08,SE,142,0.0,0.0,91,0.00,,,0.01,LWC V2.00 B2112,2013-10-15 14:38:00,
2013-10-15 10:43:00,59.8,56.5,30.07,NE,46,0.0,0.0,89,0.00,,,0.01,LWC V2.00 B2112,2013-10-15 14:43:00,
2013-10-15 10:48:00,60.1,56.2,30.07,NNW,337,0.0,0.0,87,0.00,,,0.01,LWC V2.00 B2112,2013-10-15 14:48:00,
2013-10-15 10:53:00,60.5,56.6,30.07,NW,311,0.0,0.0,87,0.00,,,0.01,LWC V2.00 B2112,2013-10-15 14:53:00,
2013-10-15 10:58:00,60.9,56.0,30.06,NE,44,0.0,0.0,84,0.00,,,0.01,LWC V2.00 B2112,2013-10-15 14:58:00,
2013-10-15 11:03:00,61.8,57.2,30.06,NNE,29,0.0,0.0,85,0.00,,,0.01,LWC V2.00 B2112,2013-10-15 15:03:00,
2013-10-15 11:08:00,62.6,57.7,30.06,WNW,302,0.0,0.0,84,0.00,,,0.01,LWC V2.00 B2112,2013-10-15 15:08:00,
2013-10-15 11:13:00,63.2,56.9,30.06,WNW,289,0.0,0.0,80,0.00,,,0.01,LWC V2.00 B2112,2013-10-15 15:13:00,
2013-10-15 11:18:00,63.7,56.7,30.06,WNW,290,0.0,2.0,78,0.00,,,0.01,LWC V2.00 B2112,2013-10-15 15:18:00,
2013-10-15 11:23:00,63.7,56.3,30.06,NE,49,0.0,0.0,77,0.00,,,0.01,LWC V2.00 B2112,2013-10-15 15:23:00,
2013-10-15 11:28:00,64.2,56.8,30.06,ESE,103,0.0,0.0,77,0.00,,,0.01,LWC V2.00 B2112,2013-10-15 15:28:00,
2013-10-15 11:33:00,64.7,58.0,30.06,SE,136,0.0,0.0,79,0.00,,,0.01,LWC V2.00 B2112,2013-10-15 15:33:00,
2013-10-15 11:38:00,65.2,57.1,30.06,NE,43,0.0,0.0,75,0.00,,,0.01,LWC V2.00 B2112,2013-10-15 15:38:00,
2013-10-15 11:43:00,65.3,56.8,30.05,WSW,257,0.0,0.0,74,0.00,,,0.01,LWC V2.00 B2112,2013-10-15 15:43:00,
2013-10-15 11:48:00,65.6,57.8,30.05,East,85,0.0,0.0,76,0.00,,,0.01,LWC V2.00 B2112,2013-10-15 15:48:00,
2013-10-15 11:53:00,66.3,58.5,30.05,East,85,0.0,0.0,76,0.00,,,0.01,LWC V2.00 B2112,2013-10-15 15:53:00,
2013-10-15 11:58:00,66.4,58.2,30.05,NW,311,0.0,0.0,75,0.00,,,0.01,LWC V2.00 B2112,2013-10-15 15:58:00,
2013-10-15 12:03:00,67.1,58.9,30.05,NNE,23,0.0,0.0,75,0.00,,,0.01,LWC V2.00 B2112,2013-10-15 16:03:00,
2013-10-15 12:08:00,67.1,57.0,30.05,ESE,119,0.0,0.0,70,0.00,,,0.01,LWC V2.00 B2112,2013-10-15 16:08:00,
2013-10-15 12:13:00,67.3,57.6,30.05,NW,307,0.0,0.0,71,0.00,,,0.01,LWC V2.00 B2112,2013-10-15 16:13:00,
2013-10-15 12:18:00,67.4,58.0,30.05,ENE,65,0.0,1.0,72,0.00,,,0.01,LWC V2.00 B2112,2013-10-15 16:18:00,
2013-10-15 12:23:00,67.6,58.2,30.05,NW,309,0.0,0.0,72,0.00,,,0.01,LWC V2.00 B2112,2013-10-15 16:23:00,
2013-10-15 12:28:00,67.9,58.9,30.04,WNW,302,0.0,0.0,73,0.00,,,0.01,LWC V2.00 B2112,2013-10-15 16:28:00,
2013-10-15 12:33:00,68.1,57.5,30.04,East,94,0.0,0.0,69,0.00,,,0.01,LWC V2.00 B2112,2013-10-15 16:33:00,
2013-10-15 12:38:00,67.9,58.5,30.04,North,359,0.0,1.0,72,0.00,,,0.01,LWC V2.00 B2112,2013-10-15 16:38:00,
2013-10-15 12:43:00,68.3,60.1,30.04,ENE,70,0.0,0.0,75,0.00,,,0.01,LWC V2.00 B2112,2013-10-15 16:43:00,
2013-10-15 12:48:00,68.6,58.4,30.04,SSE,153,0.0,0.0,70,0.00,,,0.01,LWC V2.00 B2112,2013-10-15 16:48:00,
2013-10-15 12:53:00,68.4,58.2,30.04,NW,311,0.0,0.0,70,0.00,,,0.01,LWC V2.00 B2112,2013-10-15 16:53:00,
2013-10-15 12:58:00,68.8,59.0,30.03,NE,46,0.0,0.0,71,0.00,,,0.01,LWC V2.00 B2112,2013-10-15 16:58:00,
2013-10-15 13:03:00,69.1,60.5,30.03,WNW,293,0.0,0.0,74,0.00,,,0.01,LWC V2.00 B2112,2013-10-15 17:03:00,
2013-10-15 13:08:00,68.9,57.9,30.03,East,96,0.0,0.0,68,0.00,,,0.01,LWC V2.00 B2112,2013-10-15 17:08:00,
2013-10-15 13:13:00,68.9,58.7,30.02,East,96,0.0,0.0,70,0.00,,,0.01,LWC V2.00 B2112,2013-10-15 17:13:00,
2013-10-15 13:18:00,68.9,59.1,30.02,ENE,75,0.0,0.0,71,0.00,,,0.01,LWC V2.00 B2112,2013-10-15 17:18:00,
2013-10-15 13:23:00,68.8,59.0,30.02,SSE,153,0.0,0.0,71,0.00,,,0.01,LWC V2.00 B2112,2013-10-15 17:23:00,
2013-10-15 13:28:00,68.9,59.1,30.01,NE,51,0.0,0.0,71,0.00,,,0.01,LWC V2.00 B2112,2013-10-15 17:28:00,
2013-10-15 13:33:00,68.9,58.7,30.01,NW,326,0.0,0.0,70,0.00,,,0.01,LWC V2.00 B2112,2013-10-15 17:33:00,
2013-10-15 13:38:00,68.8,59.4,30.01,WNW,297,0.0,0.0,72,0.00,,,0.01,LWC V2.00 B2112,2013-10-15 17:38:00,
2013-10-15 13:43:00,68.6,59.6,30.01,NNW,338,0.0,2.0,73,0.00,,,0.01,LWC V2.00 B2112,2013-10-15 17:43:00,
2013-10-15 13:48:00,68.4,58.6,30.01,ENE,75,0.0,0.0,71,0.00,,,0.01,LWC V2.00 B2112,2013-10-15 17:48:00,
2013-10-15 13:53:00,68.8,59.4,30.01,SSW,203,0.0,0.0,72,0.00,,,0.01,LWC V2.00 B2112,2013-10-15 17:53:00,
2013-10-15 13:58:00,69.1,59.7,30.00,WNW,299,0.0,2.0,72,0.00,,,0.01,LWC V2.00 B2112,2013-10-15 17:58:00,
2013-10-15 14:03:00,69.1,60.1,30.00,NW,309,0.0,0.0,73,0.00,,,0.01,LWC V2.00 B2112,2013-10-15 18:03:00,
2013-10-15 14:08:00,69.1,60.5,30.00,ESE,116,0.0,0.0,74,0.00,,,0.01,LWC V2.00 B2112,2013-10-15 18:08:00,
2013-10-15 14:13:00,69.1,59.7,30.00,West,271,0.0,0.0,72,0.00,,,0.01,LWC V2.00 B2112,2013-10-15 18:13:00,
2013-10-15 14:18:00,69.1,60.5,30.00,SE,134,0.0,0.0,74,0.00,,,0.01,LWC V2.00 B2112,2013-10-15 18:18:00,
2013-10-15 14:23:00,68.9,60.3,30.00,NE,41,0.0,0.0,74,0.00,,,0.01,LWC V2.00 B2112,2013-10-15 18:23:00,
2013-10-15 14:28:00,68.9,59.5,30.00,NW,304,0.0,0.0,72,0.00,,,0.01,LWC V2.00 B2112,2013-10-15 18:28:00,
2013-10-15 14:33:00,68.9,59.9,30.00,NE,43,0.0,0.0,73,0.00,,,0.01,LWC V2.00 B2112,2013-10-15 18:33:00,
2013-10-15 14:38:00,69.1,59.7,30.00,NE,43,0.0,0.0,72,0.00,,,0.01,LWC V2.00 B2112,2013-10-15 18:38:00,
2013-10-15 14:43:00,69.1,60.1,29.99,WSW,258,0.0,0.0,73,0.00,,,0.01,LWC V2.00 B2112,2013-10-15 18:43:00,
2013-10-15 14:48:00,69.3,60.6,29.99,NW,306,0.0,0.0,74,0.00,,,0.01,LWC V2.00 B2112,2013-10-15 18:48:00,
2013-10-15 14:53:00,69.1,60.8,29.99,NW,306,0.0,0.0,75,0.00,,,0.01,LWC V2.00 B2112,2013-10-15 18:53:00,
2013-10-15 14:58:00,68.9,60.3,30.00,ENE,68,0.0,0.0,74,0.00,,,0.01,LWC V2.00 B2112,2013-10-15 18:58:00,
2013-10-15 15:08:00,68.4,60.2,30.00,North,11,0.0,0.0,75,0.00,,,0.01,LWC V2.00 B2112,2013-10-15 19:08:00,
2013-10-15 15:13:00,68.4,60.2,29.99,ENE,66,0.0,0.0,75,0.00,,,0.01,LWC V2.00 B2112,2013-10-15 19:13:00,
2013-10-15 15:18:00,68.8,60.5,29.99,NNW,347,0.0,0.0,75,0.00,,,0.01,LWC V2.00 B2112,2013-10-15 19:18:00,
2013-10-15 15:23:00,68.9,60.3,29.99,ENE,70,0.0,0.0,74,0.00,,,0.01,LWC V2.00 B2112,2013-10-15 19:23:00,
2013-10-15 15:28:00,69.1,60.8,29.98,NNE,15,0.0,0.0,75,0.00,,,0.01,LWC V2.00 B2112,2013-10-15 19:28:00,
2013-10-15 15:33:00,69.1,60.5,29.98,WNW,302,0.0,0.0,74,0.00,,,0.01,LWC V2.00 B2112,2013-10-15 19:33:00,
2013-10-15 15:38:00,69.4,61.1,29.98,South,169,0.0,0.0,75,0.00,,,0.01,LWC V2.00 B2112,2013-10-15 19:38:00,
2013-10-15 15:43:00,69.8,61.9,29.98,WNW,283,0.0,0.0,76,0.00,,,0.01,LWC V2.00 B2112,2013-10-15 19:43:00,
2013-10-15 15:48:00,69.8,60.7,29.98,ESE,122,0.0,0.0,73,0.00,,,0.01,LWC V2.00 B2112,2013-10-15 19:48:00,
2013-10-15 15:53:00,69.8,61.1,29.98,ESE,122,0.0,0.0,74,0.00,,,0.01,LWC V2.00 B2112,2013-10-15 19:53:00,
2013-10-15 15:58:00,70.1,61.4,29.98,South,179,0.0,0.0,74,0.00,,,0.01,LWC V2.00 B2112,2013-10-15 19:58:00,
2013-10-15 16:03:00,70.3,61.2,29.98,NE,51,0.0,0.0,73,0.00,,,0.01,LWC V2.00 B2112,2013-10-15 20:03:00,
2013-10-15 16:08:00,70.3,60.8,29.98,NE,51,0.0,0.0,72,0.00,,,0.01,LWC V2.00 B2112,2013-10-15 20:08:00,
2013-10-15 16:13:00,69.9,60.8,29.98,NE,46,0.0,0.0,73,0.00,,,0.01,LWC V2.00 B2112,2013-10-15 20:13:00,
2013-10-15 16:18:00,69.8,60.4,29.98,WSW,238,0.0,0.0,72,0.00,,,0.01,LWC V2.00 B2112,2013-10-15 20:18:00,
2013-10-15 16:23:00,69.8,61.1,29.98,SSE,150,0.0,0.0,74,0.00,,,0.01,LWC V2.00 B2112,2013-10-15 20:23:00,
2013-10-15 16:28:00,69.4,60.7,29.98,ENE,77,0.0,0.0,74,0.00,,,0.01,LWC V2.00 B2112,2013-10-15 20:28:00,
2013-10-15 16:33:00,69.1,60.5,29.98,SE,136,0.0,0.0,74,0.00,,,0.01,LWC V2.00 B2112,2013-10-15 20:33:00,
2013-10-15 16:38:00,68.8,60.2,29.98,ENE,70,0.0,0.0,74,0.00,,,0.01,LWC V2.00 B2112,2013-10-15 20:38:00,
2013-10-15 16:43:00,68.6,60.7,29.98,ENE,70,0.0,0.0,76,0.00,,,0.01,LWC V2.00 B2112,2013-10-15 20:43:00,
2013-10-15 16:48:00,68.4,60.5,29.98,NNW,346,0.0,0.0,76,0.00,,,0.01,LWC V2.00 B2112,2013-10-15 20:48:00,
2013-10-15 16:53:00,68.4,60.9,29.98,NNW,346,0.0,0.0,77,0.00,,,0.01,LWC V2.00 B2112,2013-10-15 20:53:00,
2013-10-15 16:58:00,68.3,60.4,29.98,East,85,0.0,0.0,76,0.00,,,0.01,LWC V2.00 B2112,2013-10-15 20:58:00,
2013-10-15 17:03:00,68.1,60.2,29.98,North,7,0.0,0.0,76,0.00,,,0.01,LWC V2.00 B2112,2013-10-15 21:03:00,
2013-10-15 17:08:00,68.1,61.0,29.98,North,7,0.0,0.0,78,0.00,,,0.01,LWC V2.00 B2112,2013-10-15 21:08:00,
2013-10-15 17:13:00,67.9,60.8,29.97,WNW,302,0.0,0.0,78,0.00,,,0.01,LWC V2.00 B2112,2013-10-15 21:13:00,
2013-10-15 17:18:00,67.9,61.1,29.97,WNW,302,0.0,0.0,79,0.00,,,0.01,LWC V2.00 B2112,2013-10-15 21:18:00,
2013-10-15 17:23:00,67.9,61.1,29.97,WNW,302,0.0,0.0,79,0.00,,,0.01,LWC V2.00 B2112,2013-10-15 21:23:00,
2013-10-15 17:28:00,67.9,61.1,29.98,WNW,302,0.0,0.0,79,0.00,,,0.01,LWC V2.00 B2112,2013-10-15 21:28:00,
2013-10-15 17:33:00,67.8,61.0,29.98,WNW,302,0.0,0.0,79,0.00,,,0.01,LWC V2.00 B2112,2013-10-15 21:33:00,
2013-10-15 17:38:00,67.6,60.8,29.98,WNW,303,0.0,0.0,79,0.00,,,0.01,LWC V2.00 B2112,2013-10-15 21:38:00,
2013-10-15 17:43:00,67.4,61.0,29.98,WNW,303,0.0,0.0,80,0.00,,,0.01,LWC V2.00 B2112,2013-10-15 21:43:00,
2013-10-15 17:48:00,67.3,60.9,29.98,WNW,303,0.0,0.0,80,0.00,,,0.01,LWC V2.00 B2112,2013-10-15 21:48:00,
2013-10-15 17:53:00,67.1,60.7,29.98,WNW,303,0.0,0.0,80,0.00,,,0.01,LWC V2.00 B2112,2013-10-15 21:53:00,
2013-10-15 17:58:00,66.9,60.5,29.98,WNW,303,0.0,0.0,80,0.00,,,0.01,LWC V2.00 B2112,2013-10-15 21:58:00,
2013-10-15 18:03:00,66.6,60.6,29.98,WNW,303,0.0,0.0,81,0.00,,,0.01,LWC V2.00 B2112,2013-10-15 22:03:00,
2013-10-15 18:08:00,66.4,60.7,29.98,WNW,303,0.0,0.0,82,0.00,,,0.01,LWC V2.00 B2112,2013-10-15 22:08:00,
2013-10-15 18:13:00,66.4,60.7,29.99,WNW,303,0.0,0.0,82,0.00,,,0.01,LWC V2.00 B2112,2013-10-15 22:13:00,
2013-10-15 18:18:00,66.3,61.0,29.99,WNW,303,0.0,0.0,83,0.00,,,0.01,LWC V2.00 B2112,2013-10-15 22:18:00,
2013-10-15 18:23:00,66.1,60.8,29.99,WNW,303,0.0,0.0,83,0.00,,,0.01,LWC V2.00 B2112,2013-10-15 22:23:00,
2013-10-15 18:28:00,66.0,61.0,29.99,WNW,303,0.0,0.0,84,0.00,,,0.01,LWC V2.00 B2112,2013-10-15 22:28:00,
2013-10-15 18:33:00,65.8,61.5,29.99,WNW,303,0.0,0.0,86,0.00,,,0.01,LWC V2.00 B2112,2013-10-15 22:33:00,
2013-10-15 18:38:00,65.6,61.3,29.99,WNW,303,0.0,0.0,86,0.00,,,0.01,LWC V2.00 B2112,2013-10-15 22:38:00,
2013-10-15 18:43:00,65.5,61.2,29.99,WNW,303,0.0,0.0,86,0.00,,,0.01,LWC V2.00 B2112,2013-10-15 22:43:00,
2013-10-15 18:48:00,65.3,61.3,29.99,WNW,303,0.0,0.0,87,0.00,,,0.01,LWC V2.00 B2112,2013-10-15 22:48:00,
2013-10-15 18:53:00,65.2,61.2,29.99,WNW,303,0.0,0.0,87,0.00,,,0.01,LWC V2.00 B2112,2013-10-15 22:53:00,
2013-10-15 18:58:00,65.0,61.0,29.98,WNW,303,0.0,0.0,87,0.00,,,0.01,LWC V2.00 B2112,2013-10-15 22:58:00,
2013-10-15 19:03:00,64.8,60.8,29.98,WNW,303,0.0,0.0,87,0.00,,,0.01,LWC V2.00 B2112,2013-10-15 23:03:00,
2013-10-15 19:08:00,64.7,60.7,29.98,WNW,303,0.0,0.0,87,0.00,,,0.01,LWC V2.00 B2112,2013-10-15 23:08:00,
2013-10-15 19:13:00,64.7,60.7,29.99,WNW,303,0.0,0.0,87,0.00,,,0.01,LWC V2.00 B2112,2013-10-15 23:13:00,
2013-10-15 19:18:00,64.7,61.1,29.99,WNW,303,0.0,0.0,88,0.00,,,0.01,LWC V2.00 B2112,2013-10-15 23:18:00,
2013-10-15 19:23:00,64.7,61.1,29.99,WNW,303,0.0,0.0,88,0.00,,,0.01,LWC V2.00 B2112,2013-10-15 23:23:00,
2013-10-15 19:28:00,64.5,60.9,30.00,WNW,303,0.0,0.0,88,0.00,,,0.01,LWC V2.00 B2112,2013-10-15 23:28:00,
2013-10-15 19:33:00,64.5,61.2,30.00,WNW,303,0.0,0.0,89,0.00,,,0.01,LWC V2.00 B2112,2013-10-15 23:33:00,
2013-10-15 19:38:00,64.5,61.2,30.00,WNW,303,0.0,0.0,89,0.00,,,0.01,LWC V2.00 B2112,2013-10-15 23:38:00,
2013-10-15 19:43:00,64.5,61.2,30.00,WNW,303,0.0,0.0,89,0.00,,,0.01,LWC V2.00 B2112,2013-10-15 23:43:00,
2013-10-15 19:48:00,64.5,61.2,30.00,WNW,303,0.0,0.0,89,0.00,,,0.01,LWC V2.00 B2112,2013-10-15 23:48:00,
2013-10-15 19:53:00,64.3,61.0,30.00,WNW,303,0.0,0.0,89,0.00,,,0.01,LWC V2.00 B2112,2013-10-15 23:53:00,
2013-10-15 19:58:00,64.3,61.0,30.00,WNW,303,0.0,0.0,89,0.00,,,0.01,LWC V2.00 B2112,2013-10-15 23:58:00,
2013-10-15 20:03:00,64.3,61.3,30.00,WNW,303,0.0,0.0,90,0.00,,,0.01,LWC V2.00 B2112,2013-10-16 00:03:00,
2013-10-15 20:08:00,64.3,61.3,30.00,WNW,303,0.0,0.0,90,0.00,,,0.01,LWC V2.00 B2112,2013-10-16 00:08:00,
2013-10-15 20:13:00,64.3,61.3,29.99,NNW,340,0.0,0.0,90,0.00,,,0.01,LWC V2.00 B2112,2013-10-16 00:13:00,
2013-10-15 20:18:00,64.3,61.3,29.99,NNW,340,0.0,0.0,90,0.00,,,0.01,LWC V2.00 B2112,2013-10-16 00:18:00,
2013-10-15 20:23:00,64.2,60.9,29.99,NNW,340,0.0,0.0,89,0.00,,,0.01,LWC V2.00 B2112,2013-10-16 00:23:00,
2013-10-15 20:28:00,64.2,60.9,29.99,NNW,340,0.0,0.0,89,0.00,,,0.01,LWC V2.00 B2112,2013-10-16 00:28:00,
2013-10-15 20:33:00,64.2,61.2,29.99,NNW,340,0.0,0.0,90,0.00,,,0.01,LWC V2.00 B2112,2013-10-16 00:33:00,
2013-10-15 20:38:00,64.2,61.2,29.99,NNW,347,0.0,0.0,90,0.00,,,0.01,LWC V2.00 B2112,2013-10-16 00:38:00,
2013-10-15 20:43:00,64.0,61.0,30.00,NNW,347,0.0,0.0,90,0.00,,,0.01,LWC V2.00 B2112,2013-10-16 00:43:00,
2013-10-15 20:48:00,64.0,61.0,30.00,NNW,347,0.0,0.0,90,0.00,,,0.01,LWC V2.00 B2112,2013-10-16 00:48:00,
2013-10-15 20:53:00,64.0,61.0,30.00,NNW,347,0.0,0.0,90,0.00,,,0.01,LWC V2.00 B2112,2013-10-16 00:53:00,
2013-10-15 20:58:00,64.0,61.0,30.00,NNW,347,0.0,0.0,90,0.00,,,0.01,LWC V2.00 B2112,2013-10-16 00:58:00,
2013-10-15 21:03:00,64.0,61.0,30.00,NNW,347,0.0,0.0,90,0.00,,,0.01,LWC V2.00 B2112,2013-10-16 01:03:00,
2013-10-15 21:08:00,64.0,61.0,30.00,NNW,347,0.0,0.0,90,0.00,,,0.01,LWC V2.00 B2112,2013-10-16 01:08:00,
2013-10-15 21:13:00,63.9,60.9,30.00,NNW,347,0.0,0.0,90,0.00,,,0.01,LWC V2.00 B2112,2013-10-16 01:13:00,
2013-10-15 21:18:00,63.9,60.9,30.00,NNW,347,0.0,0.0,90,0.00,,,0.01,LWC V2.00 B2112,2013-10-16 01:18:00,
2013-10-15 21:23:00,63.7,61.0,30.00,NNW,347,0.0,0.0,91,0.00,,,0.01,LWC V2.00 B2112,2013-10-16 01:23:00,
2013-10-15 21:28:00,63.7,61.0,29.99,NNW,347,0.0,0.0,91,0.00,,,0.01,LWC V2.00 B2112,2013-10-16 01:28:00,
2013-10-15 21:33:00,63.5,61.1,29.99,NNW,347,0.0,0.0,92,0.00,,,0.01,LWC V2.00 B2112,2013-10-16 01:33:00,
2013-10-15 21:38:00,63.5,61.1,29.99,NNW,347,0.0,0.0,92,0.00,,,0.01,LWC V2.00 B2112,2013-10-16 01:38:00,
2013-10-15 21:43:00,63.5,61.1,29.99,NNW,347,0.0,0.0,92,0.00,,,0.01,LWC V2.00 B2112,2013-10-16 01:43:00,
2013-10-15 21:48:00,63.5,61.1,29.99,NNW,347,0.0,0.0,92,0.00,,,0.01,LWC V2.00 B2112,2013-10-16 01:48:00,
2013-10-15 21:53:00,63.5,61.1,29.99,NNW,347,0.0,0.0,92,0.00,,,0.01,LWC V2.00 B2112,2013-10-16 01:53:00,
2013-10-15 21:58:00,63.5,61.1,29.99,NNW,347,0.0,0.0,92,0.00,,,0.01,LWC V2.00 B2112,2013-10-16 01:58:00,
2013-10-15 22:03:00,63.5,61.1,29.99,NNW,347,0.0,0.0,92,0.00,,,0.01,LWC V2.00 B2112,2013-10-16 02:03:00,
2013-10-15 22:08:00,63.5,61.1,29.99,NNW,347,0.0,0.0,92,0.00,,,0.01,LWC V2.00 B2112,2013-10-16 02:08:00,
2013-10-15 22:13:00,63.5,61.1,29.98,NNW,347,0.0,0.0,92,0.00,,,0.01,LWC V2.00 B2112,2013-10-16 02:13:00,
2013-10-15 22:18:00,63.5,61.1,29.98,NNW,347,0.0,0.0,92,0.00,,,0.01,LWC V2.00 B2112,2013-10-16 02:18:00,
2013-10-15 22:23:00,63.5,61.4,29.98,SW,224,0.0,0.0,93,0.00,,,0.01,LWC V2.00 B2112,2013-10-16 02:23:00,
2013-10-15 22:28:00,63.5,61.1,29.99,SW,224,0.0,0.0,92,0.00,,,0.01,LWC V2.00 B2112,2013-10-16 02:28:00,
2013-10-15 22:33:00,63.5,61.4,29.99,SW,224,0.0,0.0,93,0.00,,,0.01,LWC V2.00 B2112,2013-10-16 02:33:00,
2013-10-15 22:38:00,63.5,61.4,29.99,SW,224,0.0,0.0,93,0.00,,,0.01,LWC V2.00 B2112,2013-10-16 02:38:00,
2013-10-15 22:43:00,63.5,61.4,29.99,SW,224,0.0,0.0,93,0.00,,,0.01,LWC V2.00 B2112,2013-10-16 02:43:00,
2013-10-15 22:48:00,63.4,61.3,29.99,SW,224,0.0,0.0,93,0.00,,,0.01,LWC V2.00 B2112,2013-10-16 02:48:00,
2013-10-15 22:53:00,63.4,61.3,29.99,SW,224,0.0,0.0,93,0.00,,,0.01,LWC V2.00 B2112,2013-10-16 02:53:00,
2013-10-15 22:58:00,63.4,61.3,29.99,SW,224,0.0,0.0,93,0.00,,,0.01,LWC V2.00 B2112,2013-10-16 02:58:00,
2013-10-15 23:03:00,63.2,61.1,29.99,SW,224,0.0,0.0,93,0.00,,,0.01,LWC V2.00 B2112,2013-10-16 03:03:00,
2013-10-15 23:08:00,63.2,61.4,29.99,SW,224,0.0,0.0,94,0.00,,,0.01,LWC V2.00 B2112,2013-10-16 03:08:00,
2013-10-15 23:13:00,63.2,61.4,29.98,SW,224,0.0,0.0,94,0.00,,,0.01,LWC V2.00 B2112,2013-10-16 03:13:00,
2013-10-15 23:18:00,63.2,61.4,29.98,SW,224,0.0,0.0,94,0.00,,,0.01,LWC V2.00 B2112,2013-10-16 03:18:00,
2013-10-15 23:23:00,63.2,61.4,29.98,SW,224,0.0,0.0,94,0.00,,,0.01,LWC V2.00 B2112,2013-10-16 03:23:00,
2013-10-15 23:28:00,63.2,61.4,29.98,SW,224,0.0,0.0,94,0.00,,,0.01,LWC V2.00 B2112,2013-10-16 03:28:00,
2013-10-15 23:33:00,63.2,61.4,29.98,SW,224,0.0,0.0,94,0.00,,,0.01,LWC V2.00 B2112,2013-10-16 03:33:00,
2013-10-15 23:38:00,63.1,61.3,29.98,SW,224,0.0,0.0,94,0.00,,,0.01,LWC V2.00 B2112,2013-10-16 03:38:00,
2013-10-15 23:43:00,63.1,61.3,29.98,SW,224,0.0,0.0,94,0.00,,,0.01,LWC V2.00 B2112,2013-10-16 03:43:00,
2013-10-15 23:48:00,63.1,61.3,29.98,SW,224,0.0,0.0,94,0.00,,,0.01,LWC V2.00 B2112,2013-10-16 03:48:00,
2013-10-15 23:53:00,63.1,61.6,29.98,SW,224,0.0,0.0,95,0.00,,,0.01,LWC V2.00 B2112,2013-10-16 03:53:00,
2013-10-15 23:58:00,63.1,61.6,29.98,SW,224,0.0,0.0,95,0.00,,,0.01,LWC V2.00 B2112,2013-10-16 03:58:00,